Tracking 22124 objects as of 25-Jan-2021
HD Live streaming from Space Station
objects crossing your sky now

STARLINK-1698

Track STARLINK-1698 now!
10-day predictions
STARLINK-1698 is classified as:


NORAD ID: 46547
Int'l Code: 2020-070R
Perigee: 555.1 km
Apogee: 558.7 km
Inclination: 53.0 °
Period: 95.6 minutes
Semi major axis: 6927 km
RCS: Unknown
Launch date: October 6, 2020
Source: United States (US)
Launch site: AIR FORCE EASTERN TEST RANGE (AFETR)
aabbcc
Your satellite tracking list
Your tracking list is empty




NASA's NSSDC Master Catalog

Two Line Element Set (TLE):
1 46547U 20070R   21025.25001157  .00014613  00000-0  10204-2 0  9990
2 46547  53.0006 288.8619 0002600  67.4246  53.6695 15.05564830 17752
Source of the keplerian elements: AFSPC